EKRAN 2 DEB, 11581

Orbit data source: Space-Track

EKRAN 2 DEB, 11581 is space debris in GEO originally from a launch on Tue, 20 Sep 1977 UTC launched from the Tyuratam Missile And Space Complex (TTMTR). Debris objects in space refer to the collection of defunct objects orbiting the Earth. Examples of debris include non-operational satellites, rocket bodies, and fragments generated from explosions, collisions, or faulty payload assembly.

Not visible in the next 10 days
Identifier
11581, 1977-092H
Orbit
GEO
Country
Flag of CISCIS
Related business
Manufacturer
Unknown
Mission
Spacecraft
Bus & Motor
Unknown
Mass
Unknown
Launch date (UTC)
1977-09-20 (48 years ago)
Launch vehicle
Unknown
Launch site
Tyuratam Missile And Space Complex (TTMTR)
Object type
Payload
Rocket body
Debris
Shape & HBR
Unknown shape, 1.1 m
Radar Cross Section
Large (>1 m²)

Expand to show TLE details & history
Last TLE update: 9 hours ago

TLE from 9 hours ago
0 EKRAN 2 DEB
1 11581U 77092H   25307.68282443  .00000111  00000-0  00000+0 0  9997
2 11581   4.7211 277.1400 0016397 276.3197 111.6494  1.00271593102103
Epoch: 2025-11-03T16:23Z
TLE epoch observation values (Epoch: 2025-11-03T16:23:16.030Z)
Latitude
2.24742°
Longitude
16.16006°
Altitude
35,811.282 km
Speed
3.073 km/s
True Right ascension
20h 20m 37s
True Declination
2° 14' 43"
Sunlit
Object was in daylight at epoch
Visualization orbit readout
Latitude
Unknown
Longitude
Unknown
Altitude
Unknown
Speed
Unknown
Apparent Right ascension
Unknown
Apparent Declination
Unknown
Sunlit
N/A
Visualization observer readout
Local Sidereal Time
21:06:46
Azimuth
Unknown
Elevation
Unknown
Doppler factor
Unknown
Orbital elements
Apogee altitude
35,856.848 km
Perigee altitude
35,718.569 km
Semi-major axis
42,165.846 km
Eccentricity
0.00164
Inclination
4.7211°
RAAN
277.14°
Arg. of periapsis
276.3197°
True anomaly
111.82391°
Mean anomaly
111.6494°
Eccentric anomaly
111.73667°
Mean motion
0.25067 °/min
Orbital period
1,436.15 mins
BSTAR
0
Loading maneuver chart data...
Computing Atmospheric mass density...
Loading historical data...
Loading historical data...
Loading historical data...
Loading historical data...
Loading historical data...
Loading historical data...
Loading historical data...

Documentation

Showing up to 5 results
|